Dewpoint
8 8 3 6 7 7 7 7 7 7 8 8 8 8 8 7 7 6 7 6 4 5 5 4 4 4 4 3 3 3 4 6 6 6 4 4 4 3 3 4 5 5 5
8 7 2 6 7 7 7 8 7 7 8 8 7 7 7 7 7 7 5 5 4 5 5 4 4 4 3 4 4 6 6 6 6 4 5 5 3 3 3 4 5 5 6
9 6 3 6 7 7 7 7 7 7 7 8 8 7 7 7 7 7 6 5 5 5 5 4 4 5 5 4 4 6 6 5 6 6 6 5 4 4 5 5 5 6 6
9 7 4 6 7 7 7 7 7 7 6 6 6 7 8 7 7 6 6 6 6 6 5 4 4 5 5 5 5 6 5 6 5 6 6 5 6 5 5 5 6 7 7
9 9 7 5 5 7 7 7 7 7 6 6 6 5 5 7 7 7 7 6 6 6 5 5 4 4 4 4 5 6 6 7 7 7 6 6 5 6 6 7 7 7 6
10 9 9 8 7 7 7 7 7 6 6 6 6 6 5 5 6 6 6 6 6 6 6 5 4 4 4 5 6 4 5 6 5 5 8 8 7 7 7 7 7 7 4
10 9 9 9 9 7 7 7 7 7 7 6 6 6 6 6 4 4 4 4 4 5 5 5 4 4 5 5 3 2 3 4 5 7 7 7 7 7 7 6 6 4 3
10 9 10 9 9 9 8 7 7 7 7 7 7 7 7 6 6 5 5 4 3 3 2 4 5 5 4 3 3 3 4 5 5 4 5 6 6 6 5 3 1 0 -0
9 9 9 9 9 9 9 8 8 8 7 7 7 7 7 7 7 7 7 7 6 6 5 3 2 3 3 3 3 5 6 6 5 6 6 5 4 1 -0 -1 -1 -2 -3
8 9 9 9 9 9 9 9 9 8 8 8 8 7 7 7 7 7 7 8 8 8 7 7 6 5 5 5 5 6 6 4 2 -0 -1 -2 -2 -2 -2 -3 -3 -3 -4
6 7 8 8 8 9 9 8 9 9 9 8 8 8 8 8 8 8 8 8 8 8 8 7 7 6 5 5 5 3 2 -1 -3 -2 -3 -3 -3 -3 -4 -4 -5 -6 -8
5 5 5 6 7 7 8 8 9 8 8 8 8 8 8 7 7 7 8 7 6 3 3 3 2 2 1 -0 -1 -2 -2 -3 -3 -4 -4 -5 -5 -5 -5 -7 -18 -35 -37
4 4 4 5 5 6 6 7 7 8 8 8 7 6 5 4 4 4 4 4 4 3 1 -3 -4 -4 -4 -3 -3 -3 -4 -5 -5 -5 -5 -6 -7 -12 -27 -35 -35 -35 -34
3 3 3 3 3 3 3 3 3 3 3 3 3 1 0 -0 0 0 0 -1 -0 -0 -2 -4 -4 -4 -4 -5 -7 -7 -6 -6 -6 -7 -9 -26 -34 -35 -35 -35 -35 -34 -34
0 0 1 0 0 1 1 -0 -0 -0 -0 -0 -1 -1 -1 -2 -3 -3 -3 -3 -3 -3 -4 -4 -5 -6 -7 -7 -7 -7 -7 -9 -26 -34 -35 -35 -35 -35 -35 -35 -35 -34 -31
-1 -1 -1 -1 -2 -3 -3 -4 -5 -4 -3 -3 -3 -3 -4 -5 -5 -5 -4 -5 -5 -6 -6 -6 -7 -7 -7 -8 -9 -16 -26 -33 -33 -33 -34 -35 -35 -35 -34 -32 -30 -30 -29
-2 -2 -2 -2 -3 -4 -5 -5 -6 -7 -6 -6 -6 -6 -6 -5 -5 -5 -5 -6 -6 -6 -6 -7 -8 -8 -9 -14 -26 -31 -32 -33 -33 -34 -35 -34 -33 -32 -30 -29 -29 -28 -27
-2 -3 -3 -3 -4 -5 -5 -6 -6 -6 -6 -7 -7 -6 -6 -6 -6 -6 -6 -6 -7 -7 -7 -8 -11 -22 -27 -30 -31 -32 -33 -33 -33 -33 -32 -32 -30 -29 -28 -28 -27 -26 -25
-4 -4 -4 -5 -6 -6 -6 -6 -6 -7 -7 -8 -8 -7 -8 -8 -8 -8 -8 -8 -8 -11 -20 -27 -30 -31 -31 -31 -32 -33 -33 -32 -32 -31 -31 -30 -28 -27 -27 -26 -25 -25 -24
-5 -5 -5 -6 -6 -6 -7 -7 -7 -8 -8 -8 -9 -9 -9 -8 -9 -10 -14 -20 -26 -29 -29 -31 -31 -31 -32 -32 -32 -31 -31 -30 -30 -30 -29 -28 -27 -26 -26 -25 -24 -24 -23
-7 -7 -7 -7 -7 -7 -8 -8 -8 -8 -8 -9 -9 -11 -13 -18 -26 -28 -29 -29 -30 -30 -30 -31 -31 -31 -31 -30 -30 -30 -29 -29 -28 -28 -27 -26 -26 -25 -24 -23 -23 -22 -21
-7 -8 -8 -8 -8 -8 -8 -9 -9 -9 -10 -14 -23 -27 -28 -31 -30 -30 -30 -30 -31 -31 -31 -30 -30 -30 -29 -29 -29 -29 -28 -28 -28 -27 -26 -25 -25 -24 -23 -23 -22 -21 -20
-8 -8 -9 -9 -9 -9 -9 -11 -15 -22 -29 -30 -29 -29 -30 -31 -32 -31 -31 -31 -31 -30 -30 -30 -29 -29 -29 -30 -30 -29 -29 -28 -28 -27 -25 -24 -24 -24 -23 -22 -21 -20 -20
-9 -9 -9 -10 -11 -12 -15 -21 -26 -28 -29 -30 -30 -31 -31 -31 -31 -31 -30 -30 -30 -30 -30 -30 -30 -30 -30 -30 -30 -30 -29 -28 -27 -26 -24 -24 -24 -23 -23 -22 -21 -20 -19
-12 -13 -16 -18 -21 -24 -26 -27 -28 -28 -29 -30 -30 -30 -30 -30 -30 -30 -29 -29 -29 -29 -30 -30 -30 -29 -30 -30 -29 -29 -29 -29 -27 -26 -25 -24 -23 -23 -23 -22 -21 -20 -19
-22 -23 -24 -24 -25 -25 -26 -27 -28 -28 -28 -28 -29 -29 -29 -29 -29 -28 -28 -29 -29 -29 -28 -28 -29 -29 -29 -29 -29 -29 -29 -28 -27 -26 -25 -24 -23 -23 -23 -23 -22 -21 -19
Wind_Speed
29 25 24 23 22 22 20 19 16 12 8 9 14 20 30 37 42 50 50 47 47 44 40 40 36 29 31 27 28 30 28 26 27 31 27 30 34 32 31 31 31 32 33
28 24 25 24 23 24 23 21 19 15 15 15 18 23 28 31 44 50 44 45 44 46 39 39 39 31 31 31 31 31 32 31 29 30 33 35 35 34 33 33 33 36 38
26 24 26 25 25 24 24 24 21 20 19 21 21 25 31 36 39 43 50 48 46 48 44 39 39 35 31 28 31 34 34 32 32 36 37 37 37 37 36 36 38 40 40
24 23 24 26 23 23 23 24 25 23 20 20 21 25 30 35 41 42 46 41 46 48 47 45 47 41 37 30 30 34 39 35 36 36 38 40 39 37 39 40 42 40 40
25 23 20 22 21 22 22 23 24 26 24 21 20 20 24 30 32 35 41 44 44 45 48 50 49 46 46 41 35 33 33 35 35 38 41 42 42 42 43 44 42 39 37
22 20 17 16 22 22 22 22 23 25 26 25 25 24 24 28 31 32 35 37 41 42 46 45 47 46 43 39 36 37 39 40 42 44 46 43 45 45 47 48 46 38 31
17 20 19 18 17 21 23 23 24 26 27 29 29 29 30 30 29 32 34 35 35 39 41 44 43 42 41 40 42 43 44 46 45 44 46 44 45 44 46 44 38 33 29
6 12 13 17 19 19 20 24 26 27 29 29 30 30 32 34 34 35 36 40 41 42 44 45 46 45 45 46 47 47 45 46 48 49 48 45 42 39 35 31 22 19 18
14 14 15 19 20 21 24 24 24 26 28 28 29 30 32 33 34 35 37 42 44 46 45 46 48 50 49 48 47 46 47 47 47 47 45 41 33 24 17 13 11 11 6
11 14 17 19 20 22 24 24 27 29 27 25 24 26 28 31 33 34 35 37 42 44 46 48 50 50 50 50 49 49 46 37 27 18 13 14 12 11 9 6 4 4 1
2 3 8 13 17 21 22 24 25 24 27 30 32 32 31 34 35 35 34 35 41 45 48 50 50 49 47 43 40 36 30 24 17 17 17 14 11 7 4 3 3 8 8
8 5 3 4 7 11 15 19 26 28 29 34 34 34 33 34 36 39 41 40 38 32 33 34 30 32 28 22 21 18 21 20 18 15 11 11 7 4 5 9 8 5 6
12 11 8 6 3 3 3 6 13 22 27 29 26 24 20 19 19 21 21 17 14 18 23 15 17 16 19 21 20 22 21 19 14 11 10 4 6 7 7 6 7 8 8
13 14 13 11 10 8 6 4 4 4 5 8 8 3 2 6 5 5 3 4 8 18 25 25 25 27 26 27 24 20 17 13 11 7 7 6 7 7 6 7 8 8 9
17 18 17 17 17 17 15 14 11 11 8 10 12 12 13 17 15 12 13 20 24 27 30 31 30 25 22 19 17 16 10 8 9 9 8 8 7 7 7 8 7 8 9
17 19 18 18 20 22 22 22 22 19 18 18 18 17 23 21 20 20 22 26 28 27 27 26 25 22 20 15 13 11 9 9 11 10 9 8 7 6 7 8 8 8 10
17 18 16 16 17 21 24 25 29 29 29 29 26 25 24 24 21 21 23 23 21 17 21 21 18 14 12 11 11 11 10 10 10 8 8 7 8 7 7 7 7 8 9
14 15 16 17 17 20 23 26 28 29 32 32 28 26 24 23 23 20 17 16 19 17 16 14 11 11 12 11 11 10 9 9 8 8 7 8 7 5 6 7 8 7 7
14 13 15 18 20 22 24 25 26 28 30 30 26 24 22 18 17 17 14 11 13 14 14 14 13 11 10 9 8 8 7 6 6 5 5 5 5 5 6 6 6 8 10
14 14 15 18 20 21 21 22 23 23 23 23 21 20 16 11 11 13 12 13 14 15 15 13 12 10 8 7 6 5 5 4 4 4 4 4 3 4 5 6 7 8 10
13 14 15 17 18 18 18 18 17 16 15 15 16 15 12 9 14 14 14 14 14 14 13 10 10 8 6 5 4 4 3 3 3 3 2 1 3 5 6 6 7 9 12
12 13 14 15 15 15 14 13 12 12 13 13 15 15 12 11 13 13 13 12 12 10 9 8 7 6 5 4 3 2 3 3 2 2 2 3 4 6 7 8 9 11 13
10 11 12 13 12 11 11 11 11 11 12 13 14 13 12 11 11 11 10 10 9 7 6 6 5 4 2 2 2 3 3 3 4 5 4 5 5 7 8 9 10 10 12
10 10 10 10 9 9 9 10 11 11 12 12 11 11 10 9 9 8 8 7 6 5 4 3 3 2 2 3 4 5 5 5 5 6 6 6 8 8 10 10 11 12 13
7 7 8 8 8 8 9 10 10 11 11 10 10 9 8 7 6 6 5 4 4 3 2 2 3 4 5 6 6 7 7 7 7 7 8 9 9 10 11 11 12 12 13
8 8 8 9 9 9 9 9 9 9 9 8 8 7 6 5 4 3 2 2 1 2 3 4 5 6 7 7 8 8 8 9 9 10 10 10 10 11 12 12 12 13 14
Wind_Direction
213 213 213 208 206 207 207 207 207 208 218 213 213 216 214 205 204 192 194 191 192 206 213 206 216 227 230 234 236 248 241 246 261 264 270 274 280 278 280 282 283 284 288
211 212 210 205 204 207 208 208 202 201 203 193 195 199 205 210 202 201 194 206 209 209 209 214 221 233 230 232 243 245 249 253 255 263 268 272 278 281 282 283 285 285 286
212 213 209 207 209 211 209 209 203 198 201 206 205 202 200 198 198 197 200 203 209 209 210 219 224 231 238 244 244 251 251 260 266 269 272 276 279 283 285 286 285 285 285
216 216 213 212 212 216 215 213 209 210 211 214 218 221 218 214 206 204 207 219 214 215 221 221 227 237 244 256 254 252 250 264 269 273 274 278 281 282 287 284 282 285 285
219 223 220 215 217 219 220 220 219 219 222 225 226 228 225 222 222 222 223 223 226 228 226 228 231 238 246 258 262 262 264 267 268 271 273 273 278 282 289 289 286 278 264
218 222 228 235 222 225 226 225 224 226 231 234 234 236 236 232 230 229 229 233 234 238 236 235 239 244 252 257 260 267 268 269 272 278 273 272 276 278 284 286 278 265 256
229 229 232 235 243 231 231 232 230 229 232 237 240 241 239 241 239 236 234 236 239 240 240 241 243 246 251 256 262 266 268 268 268 269 268 272 275 275 278 268 258 250 242
214 245 248 246 248 249 239 231 235 235 236 239 243 245 246 244 241 241 244 247 251 251 248 247 248 250 254 261 266 270 272 272 273 274 273 271 271 271 260 250 239 231 216
193 219 234 252 261 252 244 244 242 241 241 243 245 249 251 253 252 247 246 248 249 251 252 251 252 254 256 258 259 261 263 264 266 267 266 268 260 238 222 210 197 204 204
181 206 222 234 245 251 259 260 256 250 251 249 251 253 257 260 261 259 256 257 252 252 251 250 252 253 254 255 255 255 251 243 237 226 205 188 168 167 169 169 185 216 225
104 219 233 239 244 248 249 248 255 261 260 255 249 245 248 254 256 256 252 254 259 257 253 249 248 249 250 247 244 237 233 205 169 160 154 149 149 148 137 98 342 339 346
28 19 343 283 270 258 247 246 244 243 245 243 241 241 243 244 249 252 250 240 239 244 241 234 229 231 229 221 202 188 171 160 156 146 138 132 110 74 24 3 3 356 358
32 24 14 8 347 308 260 236 235 226 225 227 227 229 236 245 253 261 271 256 255 269 247 182 154 146 149 143 144 146 148 148 139 130 113 70 55 33 45 45 32 27 18
48 50 50 44 42 48 56 87 139 150 213 220 222 232 67 37 37 358 350 146 169 173 151 137 140 143 145 140 136 129 130 129 120 96 79 82 83 78 68 55 37 31 22
54 58 60 67 70 76 81 80 82 89 98 123 123 123 120 117 117 123 130 133 137 140 142 142 140 133 125 121 120 116 114 104 97 102 97 85 71 57 57 50 39 36 26
67 69 72 75 80 84 87 91 88 99 111 114 119 126 121 125 135 141 138 135 132 131 127 122 120 121 117 114 107 103 118 113 108 100 93 86 77 65 51 53 43 35 24
69 79 79 81 90 97 98 100 103 103 107 104 105 105 108 116 118 115 115 115 113 122 111 109 105 99 92 98 110 113 108 100 90 87 87 84 75 64 59 44 35 30 26
82 89 95 93 96 103 108 111 114 114 110 110 109 106 104 106 107 107 105 112 115 110 99 93 92 99 102 101 100 99 95 87 84 79 73 69 67 56 46 33 22 23 18
96 95 102 109 114 117 119 120 118 114 113 111 111 109 106 106 107 104 103 101 105 106 105 108 108 107 106 104 97 87 79 75 76 72 76 78 75 50 25 15 13 12 0
97 103 111 117 122 123 122 121 118 116 115 114 109 101 103 106 108 110 113 108 108 107 108 111 109 105 104 100 94 92 85 81 74 65 66 51 40 13 7 6 2 351 343
103 110 115 120 122 120 120 119 118 117 111 110 105 101 98 113 112 112 110 110 107 105 106 106 106 106 99 90 79 77 68 62 53 54 40 16 353 349 351 349 342 339 340
107 112 117 118 118 119 117 113 115 114 112 110 108 107 107 109 106 105 104 103 101 100 97 93 87 82 78 71 60 31 13 5 349 315 290 306 329 329 333 333 333 336 335
102 112 114 115 117 115 118 115 112 108 108 108 108 110 111 106 105 105 104 100 98 93 92 92 90 84 65 32 345 320 310 303 276 265 270 285 306 317 327 322 321 325 328
105 109 111 112 117 120 117 115 111 108 107 107 108 108 107 105 105 104 102 99 95 92 84 69 51 11 334 318 305 297 288 276 270 268 274 285 299 306 308 310 313 322 326
98 106 114 116 117 116 118 116 115 114 113 111 110 106 104 99 95 96 92 87 77 60 31 355 334 317 310 307 297 289 283 282 280 279 281 280 285 291 299 305 309 316 322
110 113 115 118 117 113 112 112 112 111 110 110 108 109 108 109 105 108 95 58 16 337 322 317 313 308 308 306 298 292 289 286 288 286 284 282 283 289 295 301 307 314 321
Height
1391 1396 1400 1404 1407 1412 1416 1419 1422 1426 1429 1432 1435 1440 1444 1448 1452 1458 1465 1475 1483 1490 1496 1502 1507 1512 1515 1518 1522 1524 1527 1528 1529 1529 1529 1530 1532 1533 1534 1534 1533 1532 1531
1388 1393 1397 1400 1404 1408 1413 1418 1421 1425 1429 1432 1435 1438 1443 1447 1452 1457 1466 1473 1478 1484 1491 1497 1501 1506 1509 1513 1516 1518 1520 1522 1522 1521 1523 1524 1525 1525 1525 1525 1525 1523 1522
1387 1391 1395 1399 1402 1406 1411 1416 1421 1424 1428 1432 1435 1439 1443 1446 1451 1457 1462 1468 1473 1480 1486 1491 1496 1500 1503 1507 1509 1511 1512 1514 1514 1514 1513 1515 1516 1516 1516 1515 1515 1513 1512
1386 1390 1393 1398 1402 1407 1411 1415 1419 1424 1427 1431 1435 1439 1443 1447 1451 1455 1460 1465 1470 1476 1481 1485 1490 1493 1496 1499 1502 1502 1504 1505 1505 1506 1506 1505 1505 1505 1504 1504 1503 1502 1500
1383 1389 1392 1396 1400 1404 1409 1413 1417 1422 1426 1430 1433 1437 1441 1445 1449 1453 1457 1461 1465 1470 1474 1479 1482 1486 1490 1492 1493 1495 1496 1496 1497 1496 1496 1497 1495 1494 1494 1493 1493 1492 1488
1383 1388 1393 1396 1399 1403 1407 1410 1415 1418 1422 1426 1429 1433 1436 1440 1445 1450 1454 1458 1461 1463 1467 1470 1475 1479 1482 1483 1484 1486 1487 1487 1486 1486 1485 1483 1483 1485 1485 1484 1483 1480 1480
1381 1386 1390 1393 1396 1399 1403 1407 1411 1414 1418 1420 1424 1428 1431 1435 1439 1444 1448 1451 1454 1456 1458 1461 1465 1469 1472 1474 1475 1476 1476 1475 1476 1477 1474 1473 1473 1474 1475 1472 1470 1467 1468
1380 1384 1388 1391 1393 1395 1398 1402 1405 1408 1411 1415 1418 1421 1425 1428 1434 1438 1442 1444 1445 1447 1449 1452 1455 1458 1461 1463 1464 1464 1463 1463 1463 1464 1465 1463 1462 1462 1462 1461 1464 1463 1461
1378 1383 1384 1387 1389 1391 1393 1396 1399 1403 1405 1407 1411 1414 1417 1420 1425 1430 1434 1435 1436 1437 1440 1443 1445 1447 1449 1451 1451 1451 1450 1450 1449 1451 1452 1452 1452 1452 1454 1457 1456 1458 1458
1376 1380 1383 1385 1387 1388 1389 1392 1394 1396 1400 1403 1405 1408 1411 1413 1417 1420 1424 1426 1427 1428 1430 1432 1434 1436 1437 1438 1439 1438 1439 1438 1438 1440 1444 1445 1449 1451 1452 1455 1457 1457 1455
1377 1379 1379 1381 1382 1383 1384 1386 1388 1392 1394 1396 1399 1400 1401 1404 1406 1408 1412 1415 1416 1418 1419 1419 1420 1423 1426 1428 1429 1429 1432 1434 1436 1438 1441 1444 1446 1450 1454 1449 1455 1459 1454
1379 1379 1378 1378 1378 1378 1378 1380 1383 1385 1388 1390 1392 1394 1394 1395 1397 1399 1399 1398 1402 1408 1409 1409 1408 1410 1415 1421 1423 1428 1431 1436 1439 1442 1445 1442 1445 1449 1447 1451 1453 1454 1456
1379 1378 1377 1376 1377 1375 1375 1376 1379 1380 1381 1384 1386 1387 1390 1390 1391 1392 1394 1395 1398 1399 1402 1411 1409 1415 1418 1421 1428 1428 1433 1434 1438 1439 1436 1451 1443 1448 1450 1452 1455 1453 1454
1382 1381 1378 1377 1376 1375 1375 1376 1377 1379 1381 1383 1385 1388 1391 1393 1393 1396 1395 1396 1393 1397 1403 1409 1412 1412 1419 1423 1427 1430 1433 1438 1436 1441 1441 1448 1447 1450 1451 1454 1457 1456 1454
1384 1381 1382 1382 1380 1378 1377 1379 1380 1381 1384 1384 1386 1389 1390 1391 1396 1397 1401 1403 1404 1407 1407 1410 1417 1425 1430 1433 1435 1433 1439 1441 1437 1441 1442 1445 1449 1454 1452 1453 1454 1454 1455
1392 1388 1389 1387 1388 1387 1383 1382 1387 1386 1387 1390 1391 1391 1393 1395 1400 1404 1405 1408 1414 1419 1419 1421 1425 1428 1431 1435 1436 1439 1443 1441 1438 1441 1444 1445 1448 1452 1455 1453 1454 1453 1454
1392 1394 1394 1394 1393 1392 1393 1391 1394 1396 1395 1396 1403 1403 1403 1405 1411 1414 1415 1417 1421 1424 1425 1429 1433 1436 1438 1439 1442 1441 1446 1445 1444 1444 1444 1446 1447 1451 1454 1455 1454 1452 1453
1401 1400 1399 1399 1400 1400 1402 1403 1402 1403 1402 1407 1411 1412 1413 1416 1418 1420 1422 1423 1422 1424 1426 1431 1437 1439 1442 1445 1446 1446 1446 1445 1446 1446 1447 1446 1450 1454 1454 1454 1455 1454 1454
1404 1404 1404 1405 1407 1408 1410 1412 1412 1411 1412 1412 1417 1418 1418 1421 1422 1423 1425 1427 1426 1425 1428 1432 1437 1441 1444 1447 1448 1447 1447 1448 1449 1450 1449 1449 1451 1453 1455 1455 1455 1454 1455
1408 1410 1410 1412 1413 1415 1417 1417 1419 1420 1420 1420 1419 1421 1423 1425 1425 1426 1429 1430 1431 1431 1433 1435 1440 1444 1446 1447 1447 1450 1450 1451 1450 1449 1450 1452 1454 1455 1454 1453 1454 1455 1455
1414 1415 1416 1417 1419 1420 1422 1423 1425 1425 1423 1423 1423 1425 1427 1429 1429 1430 1431 1433 1434 1436 1437 1440 1442 1444 1448 1449 1450 1451 1450 1451 1452 1451 1453 1454 1454 1454 1454 1453 1453 1454 1452
1419 1420 1421 1422 1423 1425 1426 1427 1428 1427 1426 1427 1427 1429 1431 1432 1433 1434 1435 1436 1437 1439 1440 1443 1444 1446 1447 1449 1450 1451 1451 1451 1452 1453 1453 1453 1454 1454 1453 1453 1453 1450 1449
1424 1425 1425 1426 1428 1428 1429 1430 1430 1430 1430 1430 1431 1433 1435 1435 1436 1438 1439 1440 1440 1442 1444 1445 1446 1448 1449 1450 1451 1452 1451 1451 1452 1453 1453 1453 1453 1453 1452 1452 1451 1449 1447
1427 1428 1429 1430 1430 1431 1432 1432 1432 1432 1433 1434 1435 1436 1438 1439 1440 1440 1442 1442 1443 1444 1445 1445 1447 1448 1449 1449 1451 1450 1450 1451 1452 1452 1451 1451 1451 1450 1450 1449 1448 1446 1444
1431 1431 1432 1433 1433 1433 1433 1434 1434 1434 1435 1436 1437 1439 1440 1441 1442 1443 1444 1444 1444 1445 1446 1446 1447 1448 1448 1449 1449 1449 1449 1449 1449 1449 1449 1448 1449 1448 1447 1446 1445 1443 1441
1433 1434 1434 1435 1435 1435 1436 1437 1437 1438 1438 1439 1440 1441 1442 1443 1444 1445 1445 1445 1445 1445 1446 1446 1446 1447 1447 1447 1446 1446 1446 1446 1446 1446 1445 1445 1445 1444 1443 1442 1440 1438 1436